This demonstration page uses our WeatherBlox Daily Observations layout. Learn more.

Left ArrowRight Arrow

39.08367, -84.50855

Hourly Observations for December 7, 2017

Temp ( °F °C ) Dew Point ( °F °C ) Humidity (%) Winds ( mph kmh ) Pressure ( in mb ) Visibility ( mi km ) Precip ( " mm )
12:53 am 00:53 Clear 30 -1.1 26 -3.3 85 85 N N/A 30.14 1021 10 16 N/A
1:53 am 01:53 Cloudy 30 -1.1 26 -3.3 85 85 N N/A 30.13 1020 10 16 N/A
2:53 am 02:53 Mostly Cloudy 31 -0.6 27 -2.8 85 85 N N/A 30.14 1021 10 16 N/A
3:53 am 03:53 Clear 29 -1.7 26 -3.3 89 89 N N/A 30.14 1021 10 16 N/A
4:53 am 04:53 Clear 27 -2.8 24 -4.4 89 89 N N/A 30.12 1020 10 16 N/A
5:53 am 05:53 Clear 27 -2.8 24 -4.4 89 89 N N/A 30.12 1020 10 16 N/A
6:53 am 06:53 Cloudy 31 -0.6 27 -2.8 85 85 SW 8 13 30.14 1021 10 16 N/A
7:53 am 07:53 Cloudy 33 0.6 27 -2.8 78 78 W 12 19 30.15 1021 10 16 N/A
8:53 am 08:53 Cloudy 33 0.6 27 -2.8 78 78 W 8 13 30.16 1021 10 16 N/A
9:53 am 09:53 Cloudy 34 1.1 24 -4.4 67 67 WNW 14 22 30.17 1022 10 16 N/A
10:53 am 10:53 Mostly Cloudy 34 1.1 22 -5.6 61 61 W 10 17 30.19 1022 10 16 N/A
11:53 am 11:53 Partly Cloudy 37 2.8 23 -5 57 57 W 14 22 30.18 1022 10 16 N/A
12:53 pm 12:53 Mostly Cloudy 33 0.6 19 -7.2 56 56 WNW 13 20 30.18 1022 10 16 N/A
1:53 pm 13:53 Mostly Cloudy 31 -0.6 18 -7.8 59 59 W 13 20 30.19 1022 10 16 N/A
2:53 pm 14:53 Cloudy 30 -1.1 18 -7.8 61 61 NW 9 15 30.19 1023 10 16 N/A
3:53 pm 15:53 Cloudy 30 -1.1 19 -7.2 64 64 W 10 17 30.20 1023 10 16 N/A
4:53 pm 16:53 Cloudy 29 -1.7 19 -7.2 66 66 W 13 20 30.23 1024 10 16 N/A
5:53 pm 17:53 Cloudy 28 -2.2 17 -8.3 63 63 W 7 11 30.24 1024 10 16 N/A
6:53 pm 18:53 Cloudy 28 -2.2 17 -8.3 63 63 W 6 9 30.25 1024 10 16 N/A
7:53 pm 19:53 Cloudy 27 -2.8 16 -8.9 63 63 NW 12 19 30.26 1025 10 16 N/A
8:53 pm 20:53 Clear 26 -3.3 15 -9.4 63 63 NW 7 11 30.24 1024 10 16 N/A
9:53 pm 21:53 Clear 25 -3.9 15 -9.4 66 66 VRB 3 6 30.24 1024 10 16 N/A
10:53 pm 22:53 Clear 22 -5.6 15 -9.4 75 75 WSW 7 11 30.25 1024 10 16 N/A
11:53 pm 23:53 Clear 22 -5.6 15 -9.4 75 75 SW 6 9 30.24 1024 10 16 N/A

Powered by AerisWeather